No particular awareness of the weather is required.    There are no Weather-warnings


Meteo18 Weather Cam more information Meteo18 Weather Cam


Thunder radar more information blitzortung!


Rain radar more information rain snow radar


Visit our other weather sites:

Template documentation
and downloads

And another site



Weather Underground History page Text

Daily Summary for January 14, 2018 Units:  Both    English   Metric
« Previous Day
Next Day »
Daily Weekly Monthly Yearly Custom
  High: Low: Average:
Temperature: TemperatureC °F /  -17.8 °C 1.2 °F /  -17.1 °C 4.8 °F /  -15.1 °C
Dew Point: DewpointC °F /  -17.8 °C 0.3 °F /  -17.6 °C 3 °F /  -16.1 °C
Humidity: Humidity % 72 % 88 %
Wind Speed: WindSpeedKMH mph /  0 km/h - 0.9 mph /  1.4 km/h
Wind Gust: WindSpeedGustKMH mph /  0 km/h - -
Wind:- - SSW
Pressure: PressurehPa in /  0 hPa 1015.5 in /  34384.8 hPa -
Precipitation: 0.0 in /  0 mm    
Historical Graphs
 
 
Tabular Data for January 14, 2018
Time Temperature Dew Point Pressure Wind Wind Speed Wind Gust Humidity Rainfall Rate (Hourly)
TemperatureC °F /  -17.8 °C DewpointC °F /  -17.8 °C PressurehPa in /  0 hPa Calm     Humidity % HourlyPrecipMM in /  0 mm
00:05 2.5 °F /  -16.4 °C 1.5 °F /  -16.9 °C 1016.1 in /  34405.1 hPa Calm     93 % 0.0 in /  0 mm
00:11 2.5 °F /  -16.4 °C 1.5 °F /  -16.9 °C 1016.1 in /  34405.1 hPa Calm     93 % 0.0 in /  0 mm
00:17 2.4 °F /  -16.4 °C 1.4 °F /  -17 °C 1016.1 in /  34405.1 hPa Calm     93 % 0.0 in /  0 mm
00:29 2.0 °F /  -16.7 °C 1.1 °F /  -17.2 °C 1016.1 in /  34405.1 hPa Calm     94 % 0.0 in /  0 mm
00:35 1.9 °F /  -16.7 °C 1.0 °F /  -17.2 °C 1015.8 in /  34395 hPa Calm     94 % 0.0 in /  0 mm
00:43 1.8 °F /  -16.8 °C 0.9 °F /  -17.3 °C 1015.8 in /  34395 hPa Calm   1.6 mph /  2.6 km/h 94 % 0.0 in /  0 mm
00:51 1.8 °F /  -16.8 °C 0.9 °F /  -17.3 °C 1015.8 in /  34395 hPa Calm   1.6 mph /  2.6 km/h 94 % 0.0 in /  0 mm
01:03 1.8 °F /  -16.8 °C 0.9 °F /  -17.3 °C 1015.8 in /  34395 hPa WNW 1.4 mph /  2.3 km/h 1.6 mph /  2.6 km/h 94 % 0.0 in /  0 mm
01:09 1.9 °F /  -16.7 °C 1.0 °F /  -17.2 °C 1015.8 in /  34395 hPa Calm   1.6 mph /  2.6 km/h 94 % 0.0 in /  0 mm
01:15 1.8 °F /  -16.8 °C 1.1 °F /  -17.2 °C 1015.8 in /  34395 hPa NNW 1.4 mph /  2.3 km/h 3.2 mph /  5.1 km/h 95 % 0.0 in /  0 mm
01:21 2.0 °F /  -16.7 °C 1.3 °F /  -17.1 °C 1015.8 in /  34395 hPa Calm   1.6 mph /  2.6 km/h 95 % 0.0 in /  0 mm
01:27 2.1 °F /  -16.6 °C 1.2 °F /  -17.1 °C 1015.8 in /  34395 hPa Calm   1.6 mph /  2.6 km/h 94 % 0.0 in /  0 mm
01:33 2.1 °F /  -16.6 °C 1.2 °F /  -17.1 °C 1015.8 in /  34395 hPa Calm   1.6 mph /  2.6 km/h 94 % 0.0 in /  0 mm
01:39 1.9 °F /  -16.7 °C 1.0 °F /  -17.2 °C 1015.5 in /  34384.8 hPa Calm     94 % 0.0 in /  0 mm
01:45 2.0 °F /  -16.7 °C 1.1 °F /  -17.2 °C 1015.5 in /  34384.8 hPa Calm     94 % 0.0 in /  0 mm
01:57 1.9 °F /  -16.7 °C 1.0 °F /  -17.2 °C 1015.5 in /  34384.8 hPa Calm     94 % 0.0 in /  0 mm
02:03 1.9 °F /  -16.7 °C 1.0 °F /  -17.2 °C 1015.5 in /  34384.8 hPa Calm     94 % 0.0 in /  0 mm
02:09 1.9 °F /  -16.7 °C 1.0 °F /  -17.2 °C 1015.5 in /  34384.8 hPa Calm     94 % 0.0 in /  0 mm
02:15 1.9 °F /  -16.7 °C 1.2 °F /  -17.1 °C 1015.5 in /  34384.8 hPa NNW 1.4 mph /  2.3 km/h 1.6 mph /  2.6 km/h 95 % 0.0 in /  0 mm
02:21 2.0 °F /  -16.7 °C 1.1 °F /  -17.2 °C 1015.5 in /  34384.8 hPa Calm   1.6 mph /  2.6 km/h 94 % 0.0 in /  0 mm
02:27 1.9 °F /  -16.7 °C 1.0 °F /  -17.2 °C 1015.5 in /  34384.8 hPa Calm     94 % 0.0 in /  0 mm
02:33 1.9 °F /  -16.7 °C 1.0 °F /  -17.2 °C 1015.5 in /  34384.8 hPa Calm     94 % 0.0 in /  0 mm
02:39 1.9 °F /  -16.7 °C 1.0 °F /  -17.2 °C 1015.5 in /  34384.8 hPa NNW 1.4 mph /  2.3 km/h 1.6 mph /  2.6 km/h 94 % 0.0 in /  0 mm
02:45 1.9 °F /  -16.7 °C 1.0 °F /  -17.2 °C 1015.5 in /  34384.8 hPa Calm     94 % 0.0 in /  0 mm
02:51 1.9 °F /  -16.7 °C 1.0 °F /  -17.2 °C 1015.5 in /  34384.8 hPa Calm   1.6 mph /  2.6 km/h 94 % 0.0 in /  0 mm
02:57 1.9 °F /  -16.7 °C 1.0 °F /  -17.2 °C 1015.5 in /  34384.8 hPa Calm   1.6 mph /  2.6 km/h 94 % 0.0 in /  0 mm
03:03 2.1 °F /  -16.6 °C 1.2 °F /  -17.1 °C 1015.5 in /  34384.8 hPa Calm   1.6 mph /  2.6 km/h 94 % 0.0 in /  0 mm
03:09 1.9 °F /  -16.7 °C 1.0 °F /  -17.2 °C 1015.5 in /  34384.8 hPa North 1.4 mph /  2.3 km/h 1.6 mph /  2.6 km/h 94 % 0.0 in /  0 mm
03:15 1.7 °F /  -16.8 °C 0.8 °F /  -17.3 °C 1015.5 in /  34384.8 hPa NNE 1.4 mph /  2.3 km/h 1.6 mph /  2.6 km/h 94 % 0.0 in /  0 mm
03:21 1.8 °F /  -16.8 °C 1.1 °F /  -17.2 °C 1015.5 in /  34384.8 hPa NNE 1.4 mph /  2.3 km/h 3.2 mph /  5.1 km/h 95 % 0.0 in /  0 mm
03:27 1.9 °F /  -16.7 °C 1.0 °F /  -17.2 °C 1015.5 in /  34384.8 hPa Calm     94 % 0.0 in /  0 mm
03:33 1.9 °F /  -16.7 °C 1.0 °F /  -17.2 °C 1015.5 in /  34384.8 hPa Calm     94 % 0.0 in /  0 mm
03:39 1.8 °F /  -16.8 °C 0.9 °F /  -17.3 °C 1015.5 in /  34384.8 hPa Calm   1.6 mph /  2.6 km/h 94 % 0.0 in /  0 mm
03:45 1.9 °F /  -16.7 °C 1.0 °F /  -17.2 °C 1015.5 in /  34384.8 hPa Calm     94 % 0.0 in /  0 mm
03:52 1.9 °F /  -16.7 °C 1.0 °F /  -17.2 °C 1015.5 in /  34384.8 hPa Calm     94 % 0.0 in /  0 mm
03:58 1.9 °F /  -16.7 °C 1.0 °F /  -17.2 °C 1015.5 in /  34384.8 hPa NNW 1.4 mph /  2.3 km/h 1.6 mph /  2.6 km/h 94 % 0.0 in /  0 mm
04:04 1.9 °F /  -16.7 °C 1.0 °F /  -17.2 °C 1015.5 in /  34384.8 hPa NNW 1.4 mph /  2.3 km/h 1.6 mph /  2.6 km/h 94 % 0.0 in /  0 mm
04:10 1.8 °F /  -16.8 °C 0.9 °F /  -17.3 °C 1015.5 in /  34384.8 hPa Calm     94 % 0.0 in /  0 mm
04:16 1.8 °F /  -16.8 °C 0.9 °F /  -17.3 °C 1015.5 in /  34384.8 hPa Calm     94 % 0.0 in /  0 mm
04:22 1.7 °F /  -16.8 °C 0.7 °F /  -17.4 °C 1015.5 in /  34384.8 hPa Calm   1.6 mph /  2.6 km/h 93 % 0.0 in /  0 mm
04:28 1.7 °F /  -16.8 °C 0.7 °F /  -17.4 °C 1015.5 in /  34384.8 hPa Calm   1.6 mph /  2.6 km/h 93 % 0.0 in /  0 mm
04:34 1.6 °F /  -16.9 °C 0.7 °F /  -17.4 °C 1015.5 in /  34384.8 hPa Calm     94 % 0.0 in /  0 mm
04:40 1.6 °F /  -16.9 °C 0.6 °F /  -17.4 °C 1015.5 in /  34384.8 hPa Calm   1.6 mph /  2.6 km/h 93 % 0.0 in /  0 mm
04:46 1.7 °F /  -16.8 °C 0.8 °F /  -17.3 °C 1015.5 in /  34384.8 hPa Calm   1.6 mph /  2.6 km/h 94 % 0.0 in /  0 mm
04:52 1.7 °F /  -16.8 °C 0.8 °F /  -17.3 °C 1015.5 in /  34384.8 hPa Calm     94 % 0.0 in /  0 mm
04:58 1.4 °F /  -17 °C 0.4 °F /  -17.6 °C 1015.5 in /  34384.8 hPa Calm   1.6 mph /  2.6 km/h 93 % 0.0 in /  0 mm
05:04 1.2 °F /  -17.1 °C 0.3 °F /  -17.6 °C 1015.5 in /  34384.8 hPa WNW 1.4 mph /  2.3 km/h 1.6 mph /  2.6 km/h 94 % 0.0 in /  0 mm
05:10 1.2 °F /  -17.1 °C 0.5 °F /  -17.5 °C 1015.5 in /  34384.8 hPa Calm   1.6 mph /  2.6 km/h 95 % 0.0 in /  0 mm
05:22 1.5 °F /  -16.9 °C 0.9 °F /  -17.3 °C 1015.5 in /  34384.8 hPa Calm   1.6 mph /  2.6 km/h 96 % 0.0 in /  0 mm
05:28 1.3 °F /  -17.1 °C 0.4 °F /  -17.6 °C 1015.5 in /  34384.8 hPa Calm   1.6 mph /  2.6 km/h 94 % 0.0 in /  0 mm
05:34 1.4 °F /  -17 °C 0.7 °F /  -17.4 °C 1015.5 in /  34384.8 hPa NW 1.4 mph /  2.3 km/h 1.6 mph /  2.6 km/h 95 % 0.0 in /  0 mm
05:40 1.6 °F /  -16.9 °C 0.9 °F /  -17.3 °C 1015.5 in /  34384.8 hPa Calm   1.6 mph /  2.6 km/h 95 % 0.0 in /  0 mm
05:47 1.4 °F /  -17 °C 0.5 °F /  -17.5 °C 1015.5 in /  34384.8 hPa Calm   1.6 mph /  2.6 km/h 94 % 0.0 in /  0 mm
05:59 1.4 °F /  -17 °C 0.7 °F /  -17.4 °C 1015.5 in /  34384.8 hPa Calm   1.6 mph /  2.6 km/h 95 % 0.0 in /  0 mm
06:05 1.3 °F /  -17.1 °C 0.4 °F /  -17.6 °C 1015.5 in /  34384.8 hPa NNW 1.4 mph /  2.3 km/h 1.6 mph /  2.6 km/h 94 % 0.0 in /  0 mm
06:11 1.4 °F /  -17 °C 0.7 °F /  -17.4 °C 1015.5 in /  34384.8 hPa North 1.4 mph /  2.3 km/h 1.6 mph /  2.6 km/h 95 % 0.0 in /  0 mm
06:17 1.5 °F /  -16.9 °C 0.8 °F /  -17.3 °C 1015.8 in /  34395 hPa Calm   1.6 mph /  2.6 km/h 95 % 0.0 in /  0 mm
06:23 1.4 °F /  -17 °C 0.5 °F /  -17.5 °C 1015.8 in /  34395 hPa Calm   1.6 mph /  2.6 km/h 94 % 0.0 in /  0 mm
06:29 1.3 °F /  -17.1 °C 0.4 °F /  -17.6 °C 1015.8 in /  34395 hPa Calm   1.6 mph /  2.6 km/h 94 % 0.0 in /  0 mm
06:35 1.3 °F /  -17.1 °C 0.4 °F /  -17.6 °C 1015.8 in /  34395 hPa North 1.4 mph /  2.3 km/h 3.2 mph /  5.1 km/h 94 % 0.0 in /  0 mm
06:41 1.4 °F /  -17 °C 0.7 °F /  -17.4 °C 1015.8 in /  34395 hPa North 1.4 mph /  2.3 km/h 3.2 mph /  5.1 km/h 95 % 0.0 in /  0 mm
06:47 1.6 °F /  -16.9 °C 0.9 °F /  -17.3 °C 1015.8 in /  34395 hPa NNW 1.4 mph /  2.3 km/h 3.2 mph /  5.1 km/h 95 % 0.0 in /  0 mm
06:53 1.6 °F /  -16.9 °C 0.7 °F /  -17.4 °C 1015.8 in /  34395 hPa Calm   1.6 mph /  2.6 km/h 94 % 0.0 in /  0 mm
06:59 1.4 °F /  -17 °C 0.5 °F /  -17.5 °C 1015.8 in /  34395 hPa WNW 1.4 mph /  2.3 km/h 1.6 mph /  2.6 km/h 94 % 0.0 in /  0 mm
07:07 1.3 °F /  -17.1 °C 0.4 °F /  -17.6 °C 1015.5 in /  34384.8 hPa WNW 1.4 mph /  2.3 km/h 3.2 mph /  5.1 km/h 94 % 0.0 in /  0 mm
07:13 1.3 °F /  -17.1 °C 0.6 °F /  -17.4 °C 1015.5 in /  34384.8 hPa Calm   1.6 mph /  2.6 km/h 95 % 0.0 in /  0 mm
07:19 1.7 °F /  -16.8 °C 1.0 °F /  -17.2 °C 1015.5 in /  34384.8 hPa Calm     95 % 0.0 in /  0 mm
07:25 1.5 °F /  -16.9 °C 0.6 °F /  -17.4 °C 1015.5 in /  34384.8 hPa Calm   1.6 mph /  2.6 km/h 94 % 0.0 in /  0 mm
07:31 1.4 °F /  -17 °C 0.5 °F /  -17.5 °C 1015.5 in /  34384.8 hPa NW 1.4 mph /  2.3 km/h 1.6 mph /  2.6 km/h 94 % 0.0 in /  0 mm
07:37 1.5 °F /  -16.9 °C 0.6 °F /  -17.4 °C 1015.8 in /  34395 hPa North 1.4 mph /  2.3 km/h 3.2 mph /  5.1 km/h 94 % 0.0 in /  0 mm
07:43 1.8 °F /  -16.8 °C 0.9 °F /  -17.3 °C 1015.8 in /  34395 hPa Calm   1.6 mph /  2.6 km/h 94 % 0.0 in /  0 mm
07:49 1.7 °F /  -16.8 °C 0.7 °F /  -17.4 °C 1015.8 in /  34395 hPa Calm   1.6 mph /  2.6 km/h 93 % 0.0 in /  0 mm
07:55 1.6 °F /  -16.9 °C 0.6 °F /  -17.4 °C 1016.1 in /  34405.1 hPa Calm     93 % 0.0 in /  0 mm
08:05 1.7 °F /  -16.8 °C 0.8 °F /  -17.3 °C 1016.1 in /  34405.1 hPa NNE 1.4 mph /  2.3 km/h 3.2 mph /  5.1 km/h 94 % 0.0 in /  0 mm
08:17 1.7 °F /  -16.8 °C 0.8 °F /  -17.3 °C 1016.1 in /  34405.1 hPa Calm   1.6 mph /  2.6 km/h 94 % 0.0 in /  0 mm
08:30 1.8 °F /  -16.8 °C 0.8 °F /  -17.3 °C 1016.1 in /  34405.1 hPa Calm     93 % 0.0 in /  0 mm
08:36 1.8 °F /  -16.8 °C 0.8 °F /  -17.3 °C 1016.1 in /  34405.1 hPa Calm     93 % 0.0 in /  0 mm
08:42 1.9 °F /  -16.7 °C 0.9 °F /  -17.3 °C 1016.5 in /  34418.7 hPa Calm     93 % 0.0 in /  0 mm
08:46 1.8 °F /  -16.8 °C 0.8 °F /  -17.3 °C 1016.5 in /  34418.7 hPa NNW 1.4 mph /  2.3 km/h 1.6 mph /  2.6 km/h 93 % 0.0 in /  0 mm
08:52 1.9 °F /  -16.7 °C 0.9 °F /  -17.3 °C 1016.5 in /  34418.7 hPa NNW 1.4 mph /  2.3 km/h 1.6 mph /  2.6 km/h 93 % 0.0 in /  0 mm
08:58 2.0 °F /  -16.7 °C 1.0 °F /  -17.2 °C 1016.5 in /  34418.7 hPa Calm   1.6 mph /  2.6 km/h 93 % 0.0 in /  0 mm
09:04 2.0 °F /  -16.7 °C 0.8 °F /  -17.3 °C 1016.5 in /  34418.7 hPa NNW 1.4 mph /  2.3 km/h 1.6 mph /  2.6 km/h 92 % 0.0 in /  0 mm
09:10 1.8 °F /  -16.8 °C 0.8 °F /  -17.3 °C 1016.5 in /  34418.7 hPa Calm     93 % 0.0 in /  0 mm
09:16 1.8 °F /  -16.8 °C 0.8 °F /  -17.3 °C 1016.5 in /  34418.7 hPa Calm   1.6 mph /  2.6 km/h 93 % 0.0 in /  0 mm
09:22 1.9 °F /  -16.7 °C 1.0 °F /  -17.2 °C 1016.8 in /  34428.8 hPa Calm     94 % 0.0 in /  0 mm
09:30 2.3 °F /  -16.5 °C 1.4 °F /  -17 °C 1016.8 in /  34428.8 hPa Calm     94 % 0.0 in /  0 mm
09:36 2.4 °F /  -16.4 °C 1.4 °F /  -17 °C 1016.8 in /  34428.8 hPa Calm     93 % 0.0 in /  0 mm
09:42 2.4 °F /  -16.4 °C 1.2 °F /  -17.1 °C 1016.8 in /  34428.8 hPa North 1.4 mph /  2.3 km/h 1.6 mph /  2.6 km/h 92 % 0.0 in /  0 mm
09:48 2.4 °F /  -16.4 °C 1.2 °F /  -17.1 °C 1016.8 in /  34428.8 hPa North 1.4 mph /  2.3 km/h 3.2 mph /  5.1 km/h 92 % 0.0 in /  0 mm
09:54 2.4 °F /  -16.4 °C 1.2 °F /  -17.1 °C 1016.8 in /  34428.8 hPa North 1.4 mph /  2.3 km/h 1.6 mph /  2.6 km/h 92 % 0.0 in /  0 mm
10:00 2.6 °F /  -16.3 °C 1.4 °F /  -17 °C 1017.2 in /  34442.4 hPa Calm     92 % 0.0 in /  0 mm
10:10 2.8 °F /  -16.2 °C 1.6 °F /  -16.9 °C 1017.2 in /  34442.4 hPa Calm     92 % 0.0 in /  0 mm
10:16 3.1 °F /  -16.1 °C 1.9 °F /  -16.7 °C 1017.2 in /  34442.4 hPa Calm     92 % 0.0 in /  0 mm
10:26 3.5 °F /  -15.8 °C 2.2 °F /  -16.6 °C 1017.2 in /  34442.4 hPa Calm     91 % 0.0 in /  0 mm
10:39 4.1 °F /  -15.5 °C 2.5 °F /  -16.4 °C 1017.5 in /  34452.6 hPa Calm     89 % 0.0 in /  0 mm
10:45 4.4 °F /  -15.3 °C 2.6 °F /  -16.3 °C 1017.5 in /  34452.6 hPa Calm     88 % 0.0 in /  0 mm
10:51 4.9 °F /  -15.1 °C 3.1 °F /  -16.1 °C 1017.5 in /  34452.6 hPa Calm     88 % 0.0 in /  0 mm
10:57 5.6 °F /  -14.7 °C 3.4 °F /  -15.9 °C 1017.5 in /  34452.6 hPa Calm   1.6 mph /  2.6 km/h 86 % 0.0 in /  0 mm
11:05 5.8 °F /  -14.6 °C 3.1 °F /  -16.1 °C 1017.5 in /  34452.6 hPa Calm     83 % 0.0 in /  0 mm
11:19 6.1 °F /  -14.4 °C 3.4 °F /  -15.9 °C 1017.5 in /  34452.6 hPa South 1.4 mph /  2.3 km/h 1.6 mph /  2.6 km/h 83 % 0.0 in /  0 mm
11:25 6.2 °F /  -14.3 °C 3.4 °F /  -15.9 °C 1017.8 in /  34462.7 hPa Calm   1.6 mph /  2.6 km/h 82 % 0.0 in /  0 mm
11:31 6.0 °F /  -14.4 °C 3.2 °F /  -16 °C 1017.8 in /  34462.7 hPa Calm   1.6 mph /  2.6 km/h 82 % 0.0 in /  0 mm
11:37 5.9 °F /  -14.5 °C 3.2 °F /  -16 °C 1017.8 in /  34462.7 hPa East 1.4 mph /  2.3 km/h 1.6 mph /  2.6 km/h 83 % 0.0 in /  0 mm
11:43 5.8 °F /  -14.6 °C 3.3 °F /  -15.9 °C 1017.8 in /  34462.7 hPa Calm   1.6 mph /  2.6 km/h 84 % 0.0 in /  0 mm
11:49 6.0 °F /  -14.4 °C 3.5 °F /  -15.8 °C 1017.5 in /  34452.6 hPa SSE 1.4 mph /  2.3 km/h 1.6 mph /  2.6 km/h 84 % 0.0 in /  0 mm
11:55 6.3 °F /  -14.3 °C 3.8 °F /  -15.7 °C 1017.5 in /  34452.6 hPa Calm   1.6 mph /  2.6 km/h 84 % 0.0 in /  0 mm
12:01 6.6 °F /  -14.1 °C 3.9 °F /  -15.6 °C 1017.5 in /  34452.6 hPa Calm     83 % 0.0 in /  0 mm
12:07 6.7 °F /  -14.1 °C 4.0 °F /  -15.6 °C 1017.5 in /  34452.6 hPa Calm   1.6 mph /  2.6 km/h 83 % 0.0 in /  0 mm
12:13 7.1 °F /  -13.8 °C 4.4 °F /  -15.3 °C 1017.5 in /  34452.6 hPa Calm   1.6 mph /  2.6 km/h 83 % 0.0 in /  0 mm
12:19 7.4 °F /  -13.7 °C 4.4 °F /  -15.3 °C 1017.5 in /  34452.6 hPa Calm   1.6 mph /  2.6 km/h 81 % 0.0 in /  0 mm
12:25 7.7 °F /  -13.5 °C 5.0 °F /  -15 °C 1017.2 in /  34442.4 hPa Calm   1.6 mph /  2.6 km/h 83 % 0.0 in /  0 mm
12:31 8.0 °F /  -13.3 °C 4.9 °F /  -15.1 °C 1017.5 in /  34452.6 hPa SSW 1.4 mph /  2.3 km/h 1.6 mph /  2.6 km/h 81 % 0.0 in /  0 mm
12:37 8.2 °F /  -13.2 °C 5.1 °F /  -14.9 °C 1017.2 in /  34442.4 hPa Calm   3.2 mph /  5.1 km/h 81 % 0.0 in /  0 mm
12:43 8.4 °F /  -13.1 °C 5.3 °F /  -14.8 °C 1017.2 in /  34442.4 hPa Calm   3.2 mph /  5.1 km/h 81 % 0.0 in /  0 mm
12:49 8.7 °F /  -12.9 °C 5.6 °F /  -14.7 °C 1017.2 in /  34442.4 hPa SW 4.7 mph /  7.6 km/h 4.8 mph /  7.7 km/h 81 % 0.0 in /  0 mm
12:55 8.9 °F /  -12.8 °C 5.8 °F /  -14.6 °C 1017.2 in /  34442.4 hPa South 4.7 mph /  7.6 km/h 9.7 mph /  15.6 km/h 81 % 0.0 in /  0 mm
13:01 9.1 °F /  -12.7 °C 6.0 °F /  -14.4 °C 1017.2 in /  34442.4 hPa SSE 4.7 mph /  7.6 km/h 8.0 mph /  12.9 km/h 81 % 0.0 in /  0 mm
13:13 9.1 °F /  -12.7 °C 5.5 °F /  -14.7 °C 1017.2 in /  34442.4 hPa South 1.4 mph /  2.3 km/h 11.3 mph /  18.2 km/h 78 % 0.0 in /  0 mm
13:19 9.2 °F /  -12.7 °C 5.7 °F /  -14.6 °C 1016.8 in /  34428.8 hPa SSW 3.2 mph /  5.1 km/h 6.4 mph /  10.3 km/h 79 % 0.0 in /  0 mm
13:25 9.2 °F /  -12.7 °C 5.7 °F /  -14.6 °C 1016.8 in /  34428.8 hPa South 1.4 mph /  2.3 km/h 11.3 mph /  18.2 km/h 79 % 0.0 in /  0 mm
13:31 9.4 °F /  -12.6 °C 6.3 °F /  -14.3 °C 1016.8 in /  34428.8 hPa SSW 3.2 mph /  5.1 km/h 8.0 mph /  12.9 km/h 81 % 0.0 in /  0 mm
13:37 9.3 °F /  -12.6 °C 5.5 °F /  -14.7 °C 1016.8 in /  34428.8 hPa SE 1.4 mph /  2.3 km/h 11.3 mph /  18.2 km/h 77 % 0.0 in /  0 mm
13:43 9.4 °F /  -12.6 °C 5.8 °F /  -14.6 °C 1016.8 in /  34428.8 hPa SSW 1.4 mph /  2.3 km/h 8.0 mph /  12.9 km/h 78 % 0.0 in /  0 mm
13:49 9.5 °F /  -12.5 °C 5.9 °F /  -14.5 °C 1016.8 in /  34428.8 hPa SSW 1.4 mph /  2.3 km/h 6.4 mph /  10.3 km/h 78 % 0.0 in /  0 mm
13:55 9.6 °F /  -12.4 °C 5.8 °F /  -14.6 °C 1016.8 in /  34428.8 hPa SSE 4.7 mph /  7.6 km/h 8.0 mph /  12.9 km/h 77 % 0.0 in /  0 mm
14:01 9.6 °F /  -12.4 °C 6.0 °F /  -14.4 °C 1016.8 in /  34428.8 hPa SW 4.7 mph /  7.6 km/h 6.4 mph /  10.3 km/h 78 % 0.0 in /  0 mm
14:07 9.8 °F /  -12.3 °C 5.8 °F /  -14.6 °C 1016.8 in /  34428.8 hPa SSE 1.4 mph /  2.3 km/h 11.3 mph /  18.2 km/h 76 % 0.0 in /  0 mm
14:13 9.8 °F /  -12.3 °C 5.6 °F /  -14.7 °C 1016.8 in /  34428.8 hPa South 4.7 mph /  7.6 km/h 6.4 mph /  10.3 km/h 75 % 0.0 in /  0 mm
14:19 9.9 °F /  -12.3 °C 5.9 °F /  -14.5 °C 1016.8 in /  34428.8 hPa South 3.2 mph /  5.1 km/h 9.7 mph /  15.6 km/h 76 % 0.0 in /  0 mm
14:25 10.0 °F /  -12.2 °C 5.8 °F /  -14.6 °C 1016.8 in /  34428.8 hPa SSW 9.7 mph /  15.6 km/h 11.3 mph /  18.2 km/h 75 % 0.0 in /  0 mm
14:31 9.9 °F /  -12.3 °C 5.5 °F /  -14.7 °C 1016.8 in /  34428.8 hPa South 4.7 mph /  7.6 km/h 11.3 mph /  18.2 km/h 74 % 0.0 in /  0 mm
14:37 9.7 °F /  -12.4 °C 5.5 °F /  -14.7 °C 1016.8 in /  34428.8 hPa SW 7.9 mph /  12.7 km/h 9.7 mph /  15.6 km/h 75 % 0.0 in /  0 mm
14:43 9.8 °F /  -12.3 °C 5.8 °F /  -14.6 °C 1016.8 in /  34428.8 hPa SSE 3.2 mph /  5.1 km/h 6.4 mph /  10.3 km/h 76 % 0.0 in /  0 mm
14:49 9.9 °F /  -12.3 °C 5.7 °F /  -14.6 °C 1016.8 in /  34428.8 hPa SW 11.1 mph /  17.9 km/h 11.3 mph /  18.2 km/h 75 % 0.0 in /  0 mm
14:57 9.8 °F /  -12.3 °C 5.8 °F /  -14.6 °C 1016.8 in /  34428.8 hPa SSW 6.4 mph /  10.3 km/h 12.9 mph /  20.8 km/h 76 % 0.0 in /  0 mm
15:03 9.8 °F /  -12.3 °C 5.8 °F /  -14.6 °C 1016.8 in /  34428.8 hPa SW 7.9 mph /  12.7 km/h 9.7 mph /  15.6 km/h 76 % 0.0 in /  0 mm
15:09 10.0 °F /  -12.2 °C 5.8 °F /  -14.6 °C 1017.2 in /  34442.4 hPa SW 6.4 mph /  10.3 km/h 6.4 mph /  10.3 km/h 75 % 0.0 in /  0 mm
15:15 10.1 °F /  -12.2 °C 5.5 °F /  -14.7 °C 1017.2 in /  34442.4 hPa SSW 3.2 mph /  5.1 km/h 9.7 mph /  15.6 km/h 73 % 0.0 in /  0 mm
15:21 10.2 °F /  -12.1 °C 5.6 °F /  -14.7 °C 1017.2 in /  34442.4 hPa SSW 4.7 mph /  7.6 km/h 8.0 mph /  12.9 km/h 73 % 0.0 in /  0 mm
15:27 10.3 °F /  -12.1 °C 5.9 °F /  -14.5 °C 1017.2 in /  34442.4 hPa SSW 1.4 mph /  2.3 km/h 6.4 mph /  10.3 km/h 74 % 0.0 in /  0 mm
15:33 10.4 °F /  -12 °C 5.6 °F /  -14.7 °C 1017.2 in /  34442.4 hPa South 4.7 mph /  7.6 km/h 6.4 mph /  10.3 km/h 72 % 0.0 in /  0 mm
15:39 10.4 °F /  -12 °C 6.0 °F /  -14.4 °C 1017.2 in /  34442.4 hPa SE 3.2 mph /  5.1 km/h 4.8 mph /  7.7 km/h 74 % 0.0 in /  0 mm
15:45 10.3 °F /  -12.1 °C 5.7 °F /  -14.6 °C 1017.2 in /  34442.4 hPa SW 4.7 mph /  7.6 km/h 6.4 mph /  10.3 km/h 73 % 0.0 in /  0 mm
15:57 10.5 °F /  -11.9 °C 6.1 °F /  -14.4 °C 1017.2 in /  34442.4 hPa SW 1.4 mph /  2.3 km/h 4.8 mph /  7.7 km/h 74 % 0.0 in /  0 mm
16:03 10.6 °F /  -11.9 °C 5.8 °F /  -14.6 °C 1017.2 in /  34442.4 hPa SSW 1.4 mph /  2.3 km/h 4.8 mph /  7.7 km/h 72 % 0.0 in /  0 mm
16:11 10.7 °F /  -11.8 °C 6.1 °F /  -14.4 °C 1017.2 in /  34442.4 hPa Calm   1.6 mph /  2.6 km/h 73 % 0.0 in /  0 mm
16:17 10.8 °F /  -11.8 °C 6.2 °F /  -14.3 °C 1017.2 in /  34442.4 hPa Calm   1.6 mph /  2.6 km/h 73 % 0.0 in /  0 mm
16:23 10.9 °F /  -11.7 °C 6.3 °F /  -14.3 °C 1017.2 in /  34442.4 hPa Calm   1.6 mph /  2.6 km/h 73 % 0.0 in /  0 mm
16:29 10.8 °F /  -11.8 °C 6.0 °F /  -14.4 °C 1017.5 in /  34452.6 hPa Calm     72 % 0.0 in /  0 mm
16:35 10.4 °F /  -12 °C 6.0 °F /  -14.4 °C 1017.5 in /  34452.6 hPa SE 1.4 mph /  2.3 km/h 3.2 mph /  5.1 km/h 74 % 0.0 in /  0 mm
16:45 9.9 °F /  -12.3 °C 5.7 °F /  -14.6 °C 1017.5 in /  34452.6 hPa Calm   3.2 mph /  5.1 km/h 75 % 0.0 in /  0 mm
16:52 9.8 °F /  -12.3 °C 5.6 °F /  -14.7 °C 1017.5 in /  34452.6 hPa SE 1.4 mph /  2.3 km/h 1.6 mph /  2.6 km/h 75 % 0.0 in /  0 mm
16:57 9.7 °F /  -12.4 °C 5.5 °F /  -14.7 °C 1017.5 in /  34452.6 hPa Calm   1.6 mph /  2.6 km/h 75 % 0.0 in /  0 mm
17:04 9.4 °F /  -12.6 °C 5.4 °F /  -14.8 °C 1017.5 in /  34452.6 hPa Calm     76 % 0.0 in /  0 mm
17:10 8.9 °F /  -12.8 °C 5.3 °F /  -14.8 °C 1017.5 in /  34452.6 hPa Calm     78 % 0.0 in /  0 mm
17:22 8.1 °F /  -13.3 °C 5.0 °F /  -15 °C 1017.8 in /  34462.7 hPa Calm     81 % 0.0 in /  0 mm
17:28 7.9 °F /  -13.4 °C 4.8 °F /  -15.1 °C 1017.8 in /  34462.7 hPa Calm     81 % 0.0 in /  0 mm
17:34 7.7 °F /  -13.5 °C 4.8 °F /  -15.1 °C 1017.8 in /  34462.7 hPa Calm     82 % 0.0 in /  0 mm
17:40 7.6 °F /  -13.6 °C 4.7 °F /  -15.2 °C 1017.8 in /  34462.7 hPa Calm     82 % 0.0 in /  0 mm
17:46 7.3 °F /  -13.7 °C 4.4 °F /  -15.3 °C 1017.8 in /  34462.7 hPa Calm     82 % 0.0 in /  0 mm
17:52 6.9 °F /  -13.9 °C 4.2 °F /  -15.4 °C 1017.8 in /  34462.7 hPa Calm     83 % 0.0 in /  0 mm
17:58 6.7 °F /  -14.1 °C 4.4 °F /  -15.3 °C 1018.2 in /  34476.3 hPa Calm     85 % 0.0 in /  0 mm
18:04 6.5 °F /  -14.2 °C 4.3 °F /  -15.4 °C 1018.2 in /  34476.3 hPa Calm     86 % 0.0 in /  0 mm
18:10 6.5 °F /  -14.2 °C 4.3 °F /  -15.4 °C 1018.2 in /  34476.3 hPa Calm     86 % 0.0 in /  0 mm
18:22 6.3 °F /  -14.3 °C 4.1 °F /  -15.5 °C 1018.5 in /  34486.4 hPa Calm     86 % 0.0 in /  0 mm
18:28 6.3 °F /  -14.3 °C 4.3 °F /  -15.4 °C 1018.5 in /  34486.4 hPa Calm     87 % 0.0 in /  0 mm
18:34 6.2 °F /  -14.3 °C 4.2 °F /  -15.4 °C 1018.5 in /  34486.4 hPa Calm     87 % 0.0 in /  0 mm
18:40 6.0 °F /  -14.4 °C 4.0 °F /  -15.6 °C 1018.5 in /  34486.4 hPa Calm     87 % 0.0 in /  0 mm
18:46 6.1 °F /  -14.4 °C 4.3 °F /  -15.4 °C 1018.5 in /  34486.4 hPa Calm     88 % 0.0 in /  0 mm
19:00 6.1 °F /  -14.4 °C 4.3 °F /  -15.4 °C 1018.5 in /  34486.4 hPa Calm     88 % 0.0 in /  0 mm
19:06 5.8 °F /  -14.6 °C 4.0 °F /  -15.6 °C 1018.8 in /  34496.6 hPa Calm     88 % 0.0 in /  0 mm
19:12 5.6 °F /  -14.7 °C 3.9 °F /  -15.6 °C 1018.8 in /  34496.6 hPa Calm     89 % 0.0 in /  0 mm
19:19 5.7 °F /  -14.6 °C 4.0 °F /  -15.6 °C 1018.8 in /  34496.6 hPa Calm     89 % 0.0 in /  0 mm
19:31 5.6 °F /  -14.7 °C 4.1 °F /  -15.5 °C 1018.8 in /  34496.6 hPa NNW 1.4 mph /  2.3 km/h 1.6 mph /  2.6 km/h 90 % 0.0 in /  0 mm
19:43 5.3 °F /  -14.8 °C 3.6 °F /  -15.8 °C 1018.8 in /  34496.6 hPa Calm     89 % 0.0 in /  0 mm
19:49 4.9 °F /  -15.1 °C 3.4 °F /  -15.9 °C 1019.2 in /  34510.1 hPa Calm   1.6 mph /  2.6 km/h 90 % 0.0 in /  0 mm
19:55 4.7 °F /  -15.2 °C 3.4 °F /  -15.9 °C 1019.2 in /  34510.1 hPa WNW 1.4 mph /  2.3 km/h 1.6 mph /  2.6 km/h 91 % 0.0 in /  0 mm
20:01 4.6 °F /  -15.2 °C 3.4 °F /  -15.9 °C 1019.2 in /  34510.1 hPa Calm   1.6 mph /  2.6 km/h 92 % 0.0 in /  0 mm
20:09 4.9 °F /  -15.1 °C 3.9 °F /  -15.6 °C 1019.5 in /  34520.3 hPa Calm   1.6 mph /  2.6 km/h 93 % 0.0 in /  0 mm
20:15 4.9 °F /  -15.1 °C 3.7 °F /  -15.7 °C 1019.2 in /  34510.1 hPa Calm     92 % 0.0 in /  0 mm
20:21 4.9 °F /  -15.1 °C 3.9 °F /  -15.6 °C 1019.2 in /  34510.1 hPa Calm     93 % 0.0 in /  0 mm
20:27 4.8 °F /  -15.1 °C 3.6 °F /  -15.8 °C 1019.2 in /  34510.1 hPa Calm   1.6 mph /  2.6 km/h 92 % 0.0 in /  0 mm
20:33 4.8 °F /  -15.1 °C 3.8 °F /  -15.7 °C 1019.5 in /  34520.3 hPa Calm     93 % 0.0 in /  0 mm
20:39 4.8 °F /  -15.1 °C 3.6 °F /  -15.8 °C 1019.5 in /  34520.3 hPa Calm   1.6 mph /  2.6 km/h 92 % 0.0 in /  0 mm
20:45 4.9 °F /  -15.1 °C 3.9 °F /  -15.6 °C 1019.5 in /  34520.3 hPa Calm     93 % 0.0 in /  0 mm
20:51 4.8 °F /  -15.1 °C 3.6 °F /  -15.8 °C 1019.5 in /  34520.3 hPa North 4.7 mph /  7.6 km/h 4.8 mph /  7.7 km/h 92 % 0.0 in /  0 mm
20:57 4.5 °F /  -15.3 °C 3.3 °F /  -15.9 °C 1019.5 in /  34520.3 hPa North 1.4 mph /  2.3 km/h 3.2 mph /  5.1 km/h 92 % 0.0 in /  0 mm
21:03 4.8 °F /  -15.1 °C 3.9 °F /  -15.6 °C 1019.9 in /  34533.8 hPa NNW 1.4 mph /  2.3 km/h 1.6 mph /  2.6 km/h 94 % 0.0 in /  0 mm
21:09 4.8 °F /  -15.1 °C 3.8 °F /  -15.7 °C 1019.9 in /  34533.8 hPa NW 1.4 mph /  2.3 km/h 3.2 mph /  5.1 km/h 93 % 0.0 in /  0 mm
21:21 5.0 °F /  -15 °C 4.0 °F /  -15.6 °C 1020.2 in /  34544 hPa Calm     93 % 0.0 in /  0 mm
21:27 5.3 °F /  -14.8 °C 4.4 °F /  -15.3 °C 1019.9 in /  34533.8 hPa Calm   1.6 mph /  2.6 km/h 94 % 0.0 in /  0 mm
21:35 5.6 °F /  -14.7 °C 4.4 °F /  -15.3 °C 1019.9 in /  34533.8 hPa Calm     92 % 0.0 in /  0 mm
21:41 5.5 °F /  -14.7 °C 4.3 °F /  -15.4 °C 1019.9 in /  34533.8 hPa Calm     92 % 0.0 in /  0 mm
21:47 5.3 °F /  -14.8 °C 4.0 °F /  -15.6 °C 1019.9 in /  34533.8 hPa Calm   1.6 mph /  2.6 km/h 91 % 0.0 in /  0 mm
21:53 5.4 °F /  -14.8 °C 4.2 °F /  -15.4 °C 1019.9 in /  34533.8 hPa Calm     92 % 0.0 in /  0 mm
21:59 5.3 °F /  -14.8 °C 4.0 °F /  -15.6 °C 1019.9 in /  34533.8 hPa Calm   1.6 mph /  2.6 km/h 91 % 0.0 in /  0 mm
22:05 5.2 °F /  -14.9 °C 4.0 °F /  -15.6 °C 1019.9 in /  34533.8 hPa Calm     92 % 0.0 in /  0 mm
22:11 5.1 °F /  -14.9 °C 3.9 °F /  -15.6 °C 1019.9 in /  34533.8 hPa Calm     92 % 0.0 in /  0 mm
22:17 5.1 °F /  -14.9 °C 4.1 °F /  -15.5 °C 1019.9 in /  34533.8 hPa Calm     93 % 0.0 in /  0 mm
22:23 5.4 °F /  -14.8 °C 4.4 °F /  -15.3 °C 1019.9 in /  34533.8 hPa Calm   1.6 mph /  2.6 km/h 93 % 0.0 in /  0 mm
22:29 5.7 °F /  -14.6 °C 4.5 °F /  -15.3 °C 1019.9 in /  34533.8 hPa Calm   1.6 mph /  2.6 km/h 92 % 0.0 in /  0 mm
22:35 5.7 °F /  -14.6 °C 4.5 °F /  -15.3 °C 1019.9 in /  34533.8 hPa Calm   1.6 mph /  2.6 km/h 92 % 0.0 in /  0 mm
22:41 5.8 °F /  -14.6 °C 4.4 °F /  -15.3 °C 1019.9 in /  34533.8 hPa Calm     91 % 0.0 in /  0 mm
22:47 5.8 °F /  -14.6 °C 4.4 °F /  -15.3 °C 1019.9 in /  34533.8 hPa Calm   1.6 mph /  2.6 km/h 91 % 0.0 in /  0 mm
22:53 5.8 °F /  -14.6 °C 4.4 °F /  -15.3 °C 1019.9 in /  34533.8 hPa Calm   1.6 mph /  2.6 km/h 91 % 0.0 in /  0 mm
22:59 5.8 °F /  -14.6 °C 4.4 °F /  -15.3 °C 1019.9 in /  34533.8 hPa Calm   1.6 mph /  2.6 km/h 91 % 0.0 in /  0 mm
23:05 5.8 °F /  -14.6 °C 4.4 °F /  -15.3 °C 1020.2 in /  34544 hPa Calm     91 % 0.0 in /  0 mm
23:15 5.7 °F /  -14.6 °C 4.3 °F /  -15.4 °C 1020.2 in /  34544 hPa Calm   1.6 mph /  2.6 km/h 91 % 0.0 in /  0 mm
23:21 5.7 °F /  -14.6 °C 4.3 °F /  -15.4 °C 1020.2 in /  34544 hPa Calm   1.6 mph /  2.6 km/h 91 % 0.0 in /  0 mm
23:27 5.8 °F /  -14.6 °C 4.4 °F /  -15.3 °C 1020.2 in /  34544 hPa Calm   1.6 mph /  2.6 km/h 91 % 0.0 in /  0 mm
23:35 5.7 °F /  -14.6 °C 4.3 °F /  -15.4 °C 1020.2 in /  34544 hPa Calm     91 % 0.0 in /  0 mm
23:41 5.6 °F /  -14.7 °C 4.2 °F /  -15.4 °C 1020.2 in /  34544 hPa Calm     91 % 0.0 in /  0 mm
23:51 5.3 °F /  -14.8 °C 4.0 °F /  -15.6 °C 1020.2 in /  34544 hPa Calm     91 % 0.0 in /  0 mm
23:57 5.2 °F /  -14.9 °C 4.0 °F /  -15.6 °C 1020.2 in /  34544 hPa Calm     92 % 0.0 in /  0 mm
Meteo18
Compliments of Weather Underground - 4 mb

Script developed by  Jim McMurry - jmcmurry@mwt.net Adapted for the template by  Wim van der Kuil - Leuven-Template.eu

You find our weather info also at:

European Weather Network

Weather Underground

Equipment we use:

Weather-station
Davis Vue

Weather-program
Meteobridge

Weather-server
Raspberry PI 2 B+

Provider
1 and 1

Davis Vue

Meteobridge

Raspberry PI 2 B+

1 and 1